CZ-2D R/B

基本信息
目录编号:
65853
目录名称:
CZ-2D R/B
国际标识:
2025-222C
轨道中心:
EARTH
物体状态:
在轨
发射日期:
2025-09-29 UTC
国别:
中国 (CN)
轨道信息
数据来源: 国际轨道数据
星历时间: 2026-09-05T09:20:33+0800
半长轴: 6942.468km
偏心率: 0.005335
轨道倾角: 34.902°
近地点辐角: 73.924°
升交点赤经: 116.362°
平近点角: 286.733°
近地点: 527.292km
远地点: 601.37km
周期: 95.947分钟
每日圈数: 15.008318
详细信息
发射场:
XSC
轨道高度:
LEO
数据来源:
AOE Integration Group
参考系:
TEME
时间系统:
UTC
历元类型:
SGP4
2D轨道图
3D轨道图
轨道高度分析图
轨道倾角分析图
轨道综合分析图
查看轨道综合分析图